Great Bend, KS

3:34 PM CDT on March 29, 2017 (GMT -0500)
Great Bend Municipal

Weather History for KGBD - April, 2013

Change the Weather History Date:

Monday, April 1, 2013

  Actual Average Record
Temperature  
Mean Temperature 39 °F -  
Max Temperature 48 °F 64 °F 89 °F (2012)
Min Temperature 30 °F 37 °F 22 °F (1975)
Degree Days  
Heating Degree Days 26    
Moisture  
Dew Point 23 °F    
Average Humidity 54    
Maximum Humidity 81    
Minimum Humidity 39    
Precipitation  
Precipitation 0.00 in - - ()
Sea Level Pressure  
Sea Level Pressure 30.18 in    
Wind  
Wind Speed 13 mph (ENE)    
Max Wind Speed 24 mph    
Max Gust Speed 31 mph    
Visibility 10 miles    
Events      
Averages and records for this station are not official NWS values.
T = Trace of Precipitation, MM = Missing Value Source: NWS Daily Summary

Daily Weather History Graph

Daily Weather History Graph

Search for Another Location

Airport or City:

Trip Planner

Search our weather history database for the weather conditions in past years. The results will help you decide how hot, cold, wet, or windy it might be!

Date:

Astronomy

Apr. 01, 2013 Rise Set
Actual Time 7:19 AM CDT 7:58 PM CDT
Civil Twilight 6:53 AM CDT 8:25 PM CDT
Nautical Twilight 6:21 AM CDT 8:57 PM CDT
Astronomical Twilight 5:49 AM CDT 9:29 PM CDT
Moon 1:05 AM CDT (4/1) 11:11 AM CDT (4/1)
Length of Visible Light 13h 32m
Length of Day
12h 39m
Waning Gibbous, 67% of the Moon is Illuminated
Apr 1
Waning Gibbous
Apr 2
Last Quarter
Apr 10
New
Apr 18
First Quarter
Apr 25
Full

Hourly Weather History & Observations

Time (CDT) Temp. Windchill Dew Point Humidity Pressure Visibility Wind Dir Wind Speed Gust Speed Precip Events Conditions
12:15 AM 46.4 °F 41.9 °F 35.6 °F 66% 29.94 in 10.0 mi South 9.2 mph - N/A   Clear
12:35 AM 44.6 °F - 33.8 °F 66% 29.95 in 10.0 mi Calm Calm - N/A   Clear
12:55 AM 46.4 °F 41.9 °F 33.8 °F 62% 29.94 in 10.0 mi South 9.2 mph - N/A   Clear
1:15 AM 44.6 °F - 33.8 °F 66% 29.95 in 10.0 mi Calm Calm - N/A   Clear
1:35 AM 44.6 °F 43.1 °F 33.8 °F 66% 29.96 in 10.0 mi South 3.5 mph - N/A   Clear
1:55 AM 46.4 °F 42.4 °F 33.8 °F 62% 29.96 in 10.0 mi SSW 8.1 mph - N/A   Clear
2:15 AM 42.8 °F 34.3 °F 33.8 °F 70% 30.01 in 10.0 mi North 19.6 mph 25.3 mph N/A   Clear
2:35 AM 48.2 °F - 35.6 °F 62% 30.05 in 10.0 mi North 15.0 mph 29.9 mph N/A   Clear
3:15 AM 46.4 °F 38.3 °F 35.6 °F 66% 30.06 in 10.0 mi NE 23.0 mph - N/A   Clear
3:35 AM 42.8 °F 34.5 °F 30.2 °F 61% 30.08 in 10.0 mi NE 18.4 mph 25.3 mph N/A   Clear
3:55 AM 41.0 °F 30.9 °F 28.4 °F 61% 30.10 in 10.0 mi NE 24.2 mph 31.1 mph N/A   Clear
4:15 AM 39.2 °F 30.2 °F 28.4 °F 65% 30.10 in 10.0 mi NE 17.3 mph - N/A   Clear
4:35 AM 37.4 °F 27.5 °F 28.4 °F 70% 30.12 in 10.0 mi NE 18.4 mph 25.3 mph N/A   Clear
5:15 AM 37.4 °F 28.5 °F 30.2 °F 75% 30.14 in 10.0 mi NE 15.0 mph 21.9 mph N/A   Mostly Cloudy
5:35 AM 37.4 °F 27.2 °F 30.2 °F 75% 30.15 in 10.0 mi NE 19.6 mph 25.3 mph N/A   Overcast
5:55 AM 37.4 °F 26.6 °F 30.2 °F 75% 30.17 in 10.0 mi NE 21.9 mph 29.9 mph N/A   Overcast
6:15 AM 35.6 °F 24.0 °F 30.2 °F 81% 30.18 in 10.0 mi NE 23.0 mph 27.6 mph N/A   Overcast
6:35 AM 35.6 °F 24.5 °F 28.4 °F 75% 30.19 in 10.0 mi NE 20.7 mph 25.3 mph N/A   Overcast
7:15 AM 33.8 °F 21.9 °F 24.8 °F 70% 30.20 in 10.0 mi NNE 21.9 mph 27.6 mph N/A   Overcast
7:35 AM 32.0 °F 21.2 °F 21.2 °F 64% 30.21 in 10.0 mi NE 16.1 mph 27.6 mph N/A   Overcast
7:55 AM 30.2 °F 17.8 °F 21.2 °F 69% 30.22 in 10.0 mi NNE 19.6 mph - N/A   Partly Cloudy
8:15 AM 30.2 °F 18.1 °F 17.6 °F 60% 30.23 in 10.0 mi NE 18.4 mph 21.9 mph N/A   Clear
8:35 AM 30.2 °F 19.3 °F 19.4 °F 64% 30.25 in 10.0 mi NE 15.0 mph 20.7 mph N/A   Clear
8:55 AM 32.0 °F 21.6 °F 19.4 °F 60% 30.25 in 10.0 mi NNE 15.0 mph - N/A   Clear
9:15 AM 33.8 °F 21.3 °F 21.2 °F 60% 30.24 in 10.0 mi NE 24.2 mph 28.8 mph N/A   Scattered Clouds
9:35 AM 32.0 °F 19.8 °F 19.4 °F 60% 30.24 in 10.0 mi NE 20.7 mph 26.5 mph N/A   Mostly Cloudy
9:55 AM 33.8 °F 23.2 °F 17.6 °F 52% 30.26 in 10.0 mi NE 17.3 mph 23.0 mph N/A   Overcast
10:15 AM 33.8 °F 23.5 °F 17.6 °F 52% 30.27 in 10.0 mi NE 16.1 mph - N/A   Overcast
10:35 AM 33.8 °F 23.5 °F 17.6 °F 52% 30.26 in 10.0 mi NE 16.1 mph - N/A   Overcast
10:55 AM 33.8 °F 24.3 °F 17.6 °F 52% 30.27 in 10.0 mi NE 13.8 mph - N/A   Overcast
11:15 AM 35.6 °F 26.6 °F 17.6 °F 48% 30.30 in 10.0 mi NE 13.8 mph - N/A   Overcast
11:35 AM 35.6 °F 27.5 °F 15.8 °F 44% 30.30 in 10.0 mi NE 11.5 mph - N/A   Overcast
11:55 AM 35.6 °F 25.9 °F 15.8 °F 44% 30.28 in 10.0 mi NE 16.1 mph - N/A   Overcast
12:15 PM 35.6 °F 25.5 °F 15.8 °F 44% 30.28 in 10.0 mi NE 17.3 mph 20.7 mph N/A   Overcast
12:35 PM 35.6 °F 24.8 °F 15.8 °F 44% 30.28 in 10.0 mi NE 19.6 mph - N/A   Overcast
12:55 PM 35.6 °F 26.2 °F 17.6 °F 48% 30.26 in 10.0 mi NE 15.0 mph - N/A   Overcast
1:15 PM 35.6 °F 25.9 °F 17.6 °F 48% 30.26 in 10.0 mi NE 16.1 mph - N/A   Overcast
1:35 PM 35.6 °F 25.2 °F 17.6 °F 48% 30.25 in 10.0 mi NE 18.4 mph - N/A   Overcast
1:55 PM 37.4 °F 29.3 °F 17.6 °F 45% 30.24 in 10.0 mi NE 12.7 mph - N/A   Overcast
2:15 PM 37.4 °F 28.9 °F 17.6 °F 45% 30.25 in 10.0 mi NE 13.8 mph - N/A   Overcast
2:35 PM 37.4 °F 29.3 °F 17.6 °F 45% 30.25 in 10.0 mi NE 12.7 mph - N/A   Overcast
3:15 PM 39.2 °F 31.2 °F 19.4 °F 45% 30.23 in 10.0 mi ENE 13.8 mph - N/A   Overcast
3:35 PM 39.2 °F 30.5 °F 19.4 °F 45% 30.22 in 10.0 mi ENE 16.1 mph - N/A   Overcast
3:55 PM 41.0 °F 34.3 °F 19.4 °F 42% 30.22 in 10.0 mi ENE 11.5 mph 16.1 mph N/A   Overcast
4:15 PM 41.0 °F 34.3 °F 17.6 °F 39% 30.22 in 10.0 mi ENE 11.5 mph - N/A   Overcast
4:35 PM 41.0 °F 34.3 °F 19.4 °F 42% 30.21 in 10.0 mi ENE 11.5 mph - N/A   Overcast
4:55 PM 41.0 °F 33.5 °F 19.4 °F 42% 30.20 in 10.0 mi ENE 13.8 mph - N/A   Overcast
5:15 PM 42.8 °F 36.2 °F 19.4 °F 39% 30.20 in 10.0 mi East 12.7 mph - N/A   Overcast
5:35 PM 41.0 °F 34.3 °F 19.4 °F 42% 30.19 in 10.0 mi East 11.5 mph - N/A   Overcast
5:55 PM 41.0 °F 34.7 °F 19.4 °F 42% 30.19 in 10.0 mi ENE 10.4 mph - N/A   Overcast
6:15 PM 41.0 °F 34.3 °F 19.4 °F 42% 30.19 in 10.0 mi East 11.5 mph - N/A   Overcast
6:35 PM 41.0 °F 34.7 °F 19.4 °F 42% 30.19 in 10.0 mi East 10.4 mph - N/A   Overcast
6:55 PM 41.0 °F 34.7 °F 19.4 °F 42% 30.19 in 10.0 mi East 10.4 mph - N/A   Overcast
7:15 PM 41.0 °F 35.2 °F 19.4 °F 42% 30.19 in 10.0 mi East 9.2 mph - N/A   Overcast
7:35 PM 41.0 °F 36.4 °F 19.4 °F 42% 30.19 in 10.0 mi East 6.9 mph - N/A   Overcast
7:55 PM 41.0 °F 34.7 °F 19.4 °F 42% 30.18 in 10.0 mi East 10.4 mph - N/A   Overcast
8:15 PM 41.0 °F 34.7 °F 19.4 °F 42% 30.20 in 10.0 mi East 10.4 mph - N/A   Overcast
8:35 PM 41.0 °F 35.2 °F 19.4 °F 42% 30.20 in 10.0 mi ESE 9.2 mph - N/A   Overcast
8:55 PM 39.2 °F 35.0 °F 21.2 °F 49% 30.22 in 10.0 mi ESE 5.8 mph - N/A   Overcast
9:15 PM 39.2 °F 34.2 °F 21.2 °F 49% 30.22 in 10.0 mi East 6.9 mph - N/A   Overcast
9:35 PM 39.2 °F 34.2 °F 21.2 °F 49% 30.23 in 10.0 mi East 6.9 mph - N/A   Overcast
9:55 PM 39.2 °F 35.0 °F 21.2 °F 49% 30.23 in 10.0 mi East 5.8 mph - N/A   Overcast
10:15 PM 39.2 °F 33.6 °F 21.2 °F 49% 30.23 in 10.0 mi East 8.1 mph - N/A   Overcast
10:35 PM 39.2 °F 33.0 °F 21.2 °F 49% 30.23 in 10.0 mi East 9.2 mph - N/A   Overcast
10:55 PM 39.2 °F 33.0 °F 21.2 °F 49% 30.23 in 10.0 mi East 9.2 mph - N/A   Overcast
11:15 PM 39.2 °F 33.0 °F 21.2 °F 49% 30.23 in 10.0 mi ENE 9.2 mph - N/A   Overcast
11:35 PM 39.2 °F 31.2 °F 19.4 °F 45% 30.21 in 10.0 mi ENE 13.8 mph - N/A   Overcast
11:55 PM 39.2 °F 33.0 °F 19.4 °F 45% 30.22 in 10.0 mi ENE 9.2 mph - N/A   Overcast